TimePST,TemperatureF,Dew PointF,Humidity,Sea Level PressureIn,VisibilityMPH,Wind Direction,Wind SpeedMPH,Gust SpeedMPH,PrecipitationIn,Events,Conditions,WindDirDegrees,DateUTC
12:15 AM,50.0,44.6,82,29.81,5.0,NNW,26.5,36.8,N/A,,Haze,330,2013-12-19 08:15:00
12:35 AM,50.0,44.6,82,29.81,6.0,NNW,23.0,38.0,N/A,,Haze,330,2013-12-19 08:35:00
12:55 AM,50.0,44.6,82,29.81,5.0,NNW,24.2,31.1,N/A,,Haze,330,2013-12-19 08:55:00
1:15 AM,50.0,44.6,82,29.79,6.0,NNW,26.5,35.7,N/A,,Haze,330,2013-12-19 09:15:00
1:35 AM,50.0,44.6,82,29.79,5.0,NNW,28.8,35.7,N/A,,Haze,330,2013-12-19 09:35:00
1:55 AM,50.0,44.6,82,29.79,6.0,NNW,25.3,35.7,N/A,,Haze,330,2013-12-19 09:55:00
2:15 AM,50.0,42.8,76,29.80,6.0,NNW,25.3,38.0,N/A,,Haze,340,2013-12-19 10:15:00
2:35 AM,50.0,44.6,82,29.78,5.0,NNW,26.5,35.7,N/A,,Haze,330,2013-12-19 10:35:00
2:55 AM,50.0,41.0,71,29.77,7.0,NNW,27.6,40.3,N/A,,Overcast,330,2013-12-19 10:55:00
3:15 AM,50.0,42.8,76,29.75,6.0,NNW,28.8,38.0,N/A,,Haze,330,2013-12-19 11:15:00
3:35 AM,50.0,42.8,76,29.75,7.0,NNW,24.2,39.1,N/A,,Overcast,330,2013-12-19 11:35:00
3:55 AM,50.0,41.0,71,29.75,7.0,NNW,24.2,35.7,N/A,,Overcast,340,2013-12-19 11:55:00
4:15 AM,50.0,41.0,71,29.74,7.0,NNW,25.3,34.5,N/A,,Overcast,340,2013-12-19 12:15:00
4:35 AM,50.0,42.8,76,29.75,7.0,NNW,18.4,29.9,N/A,,Overcast,340,2013-12-19 12:35:00
4:55 AM,50.0,42.8,76,29.75,7.0,NNW,19.6,28.8,N/A,,Overcast,340,2013-12-19 12:55:00
5:15 AM,50.0,42.8,76,29.75,7.0,NNW,19.6,29.9,N/A,,Overcast,340,2013-12-19 13:15:00
5:35 AM,50.0,41.0,71,29.75,7.0,NNW,18.4,29.9,N/A,,Overcast,340,2013-12-19 13:35:00
5:55 AM,50.0,41.0,71,29.75,7.0,NNW,17.3,31.1,N/A,,Mostly Cloudy,340,2013-12-19 13:55:00
6:15 AM,50.0,41.0,71,29.76,7.0,North,18.4,31.1,N/A,,Scattered Clouds,350,2013-12-19 14:15:00
6:35 AM,48.2,41.0,76,29.76,7.0,NNW,18.4,25.3,N/A,,Partly Cloudy,340,2013-12-19 14:35:00
6:55 AM,48.2,41.0,76,29.77,7.0,North,15.0,23.0,N/A,,Clear,350,2013-12-19 14:55:00
7:15 AM,48.2,41.0,76,29.77,7.0,NNW,12.7,-,N/A,,Clear,340,2013-12-19 15:15:00
7:35 AM,48.2,41.0,76,29.78,6.0,NNW,13.8,19.6,N/A,,Haze,340,2013-12-19 15:35:00
7:55 AM,48.2,41.0,76,29.78,7.0,NNW,11.5,-,N/A,,Clear,340,2013-12-19 15:55:00
8:15 AM,50.0,41.0,71,29.79,7.0,NNW,15.0,18.4,N/A,,Clear,330,2013-12-19 16:15:00
8:35 AM,50.0,41.0,71,29.80,7.0,NNW,15.0,21.9,N/A,,Clear,340,2013-12-19 16:35:00
8:55 AM,50.0,41.0,71,29.81,8.0,NNW,13.8,20.7,N/A,,Unknown,340,2013-12-19 16:55:00
9:15 AM,51.8,41.0,67,29.82,7.0,NNW,11.5,23.0,N/A,,Scattered Clouds,340,2013-12-19 17:15:00
9:35 AM,51.8,41.0,67,29.83,7.0,NNW,13.8,19.6,N/A,,Partly Cloudy,330,2013-12-19 17:35:00
9:55 AM,51.8,41.0,67,29.84,8.0,NNW,12.7,19.6,N/A,,Clear,340,2013-12-19 17:55:00
10:15 AM,-9999,-9999,N/A,-9999,-9999.0,North,-9999.0,-,N/A,,Unknown,0,2013-12-19 18:15:00
10:35 AM,-9999,-9999,N/A,-9999,-9999.0,North,-9999.0,-,N/A,,Unknown,0,2013-12-19 18:35:00
10:55 AM,53.6,41.0,62,29.85,-9999.0,NNW,13.8,-,N/A,,Unknown,330,2013-12-19 18:55:00
11:15 AM,53.6,41.0,62,29.85,9.0,NNW,16.1,21.9,N/A,,Clear,330,2013-12-19 19:15:00
11:35 AM,53.6,41.0,62,29.84,8.0,NNW,15.0,21.9,N/A,,Clear,330,2013-12-19 19:35:00
11:55 AM,55.4,41.0,58,29.83,8.0,NNW,15.0,20.7,N/A,,Clear,330,2013-12-19 19:55:00
12:15 PM,53.6,41.0,62,29.83,8.0,NNW,15.0,23.0,N/A,,Clear,330,2013-12-19 20:15:00
12:35 PM,53.6,41.0,62,29.82,7.0,NNW,17.3,21.9,N/A,,Clear,330,2013-12-19 20:35:00
12:55 PM,55.4,41.0,58,29.82,8.0,NW,16.1,21.9,N/A,,Clear,320,2013-12-19 20:55:00
1:15 PM,53.6,41.0,62,29.82,7.0,NNW,16.1,23.0,N/A,,Clear,330,2013-12-19 21:15:00
1:35 PM,53.6,41.0,62,29.83,7.0,NNW,13.8,23.0,N/A,,Clear,340,2013-12-19 21:35:00
1:55 PM,55.4,41.0,58,29.83,7.0,NNW,17.3,23.0,N/A,,Clear,340,2013-12-19 21:55:00
2:15 PM,53.6,42.8,67,29.83,7.0,NNW,13.8,21.9,N/A,,Clear,340,2013-12-19 22:15:00
2:35 PM,53.6,41.0,62,29.83,6.0,North,16.1,20.7,N/A,,Haze,350,2013-12-19 22:35:00
2:55 PM,53.6,42.8,67,29.83,5.0,NNW,13.8,21.9,N/A,,Haze,340,2013-12-19 22:55:00
3:15 PM,53.6,42.8,67,-9999,5.0,North,-9999.0,-,N/A,,Haze,0,2013-12-19 23:15:00
3:35 PM,53.6,42.8,67,29.84,5.0,North,12.7,21.9,N/A,,Haze,350,2013-12-19 23:35:00
3:55 PM,53.6,41.0,62,29.85,5.0,North,13.8,21.9,N/A,,Haze,360,2013-12-19 23:55:00
4:15 PM,-9999,-9999,N/A,-9999,5.0,North,-9999.0,-,N/A,,Haze,0,2013-12-20 00:15:00
4:35 PM,51.8,42.8,71,29.85,5.0,NNW,15.0,19.6,N/A,,Haze,340,2013-12-20 00:35:00
4:55 PM,50.0,41.0,71,29.86,5.0,North,9.2,-,N/A,,Haze,360,2013-12-20 00:55:00
5:15 PM,50.0,41.0,71,29.86,5.0,North,10.4,17.3,N/A,,Haze,360,2013-12-20 01:15:00
5:35 PM,50.0,39.2,66,29.86,7.0,NNW,6.9,-,N/A,,Clear,340,2013-12-20 01:35:00
5:55 PM,50.0,41.0,71,29.86,7.0,North,8.1,-,N/A,,Partly Cloudy,360,2013-12-20 01:55:00
6:15 PM,50.0,39.2,66,29.87,7.0,NNE,8.1,-,N/A,,Partly Cloudy,20,2013-12-20 02:15:00
6:35 PM,50.0,41.0,71,29.87,5.0,NNW,9.2,-,N/A,,Haze,340,2013-12-20 02:35:00
6:55 PM,50.0,41.0,71,29.87,5.0,NNE,3.5,-,N/A,,Haze,20,2013-12-20 02:55:00
7:15 PM,44.6,37.4,76,29.88,7.0,North,4.6,-,N/A,,Mostly Cloudy,350,2013-12-20 03:15:00
7:35 PM,44.6,37.4,76,29.88,7.0,North,5.8,-,N/A,,Partly Cloudy,360,2013-12-20 03:35:00
7:55 PM,50.0,28.4,43,29.88,10.0,North,3.5,-,N/A,,Clear,350,2013-12-20 03:55:00
8:15 PM,50.0,26.6,40,29.89,10.0,NNW,4.6,-,N/A,,Clear,340,2013-12-20 04:15:00
8:35 PM,46.4,28.4,50,29.90,10.0,North,3.5,-,N/A,,Clear,350,2013-12-20 04:35:00
8:55 PM,44.6,28.4,53,29.91,10.0,NNW,3.5,-,N/A,,Clear,340,2013-12-20 04:55:00
9:15 PM,44.6,26.6,49,29.92,10.0,North,4.6,-,N/A,,Clear,10,2013-12-20 05:15:00
9:35 PM,46.4,23.0,40,29.92,10.0,NNE,6.9,-,N/A,,Clear,30,2013-12-20 05:35:00
9:55 PM,48.2,19.4,32,29.92,10.0,North,5.8,-,N/A,,Clear,360,2013-12-20 05:55:00
10:15 PM,44.6,23.0,43,29.92,10.0,NE,3.5,-,N/A,,Clear,40,2013-12-20 06:15:00
10:35 PM,46.4,19.4,34,29.94,10.0,NW,4.6,-,N/A,,Clear,310,2013-12-20 06:35:00
10:55 PM,48.2,21.2,34,29.94,9.0,NNW,3.5,-,N/A,,Clear,330,2013-12-20 06:55:00
11:15 PM,44.6,23.0,43,29.95,10.0,Calm,Calm,-,N/A,,Clear,0,2013-12-20 07:15:00
11:35 PM,41.0,21.2,45,29.95,10.0,NNW,3.5,-,N/A,,Clear,330,2013-12-20 07:35:00
11:55 PM,42.8,19.4,39,29.95,9.0,NNE,3.5,-,N/A,,Clear,20,2013-12-20 07:55:00